Wind_Speed
20 19 19 21 20 19 20 21 22 22 21 21 22 22 22 22 22 21 20 19 19 19 18 17 17 17 17 16 16 17 17 17 18 19 18 18 18 18 18 18 18 18 19 19
21 20 20 21 21 21 21 21 22 22 22 24 23 23 23 23 23 22 21 20 19 19 19 18 18 19 18 17 17 18 19 19 19 19 19 18 18 18 19 18 18 18 19 19
23 21 21 22 22 22 21 20 22 22 23 23 24 24 25 24 23 23 23 22 21 20 19 19 20 20 19 19 19 19 19 19 19 19 20 20 20 19 19 19 19 19 20 20
23 22 23 22 22 22 22 23 23 24 24 25 25 24 24 23 22 22 22 23 22 22 21 21 21 21 21 21 21 20 20 20 20 19 19 20 20 20 20 19 19 19 20 19
23 23 23 22 22 22 22 23 24 25 25 25 24 25 25 25 24 24 24 24 24 23 22 22 22 21 21 21 21 21 21 21 20 20 20 20 20 21 21 20 19 19 19 19
23 24 25 24 24 24 24 25 25 26 25 26 25 26 25 26 26 25 25 25 25 24 23 23 23 22 22 21 22 22 21 21 21 20 20 21 21 21 21 21 21 20 20 19
23 25 26 25 24 24 25 26 26 25 25 26 26 26 25 25 25 25 25 25 25 24 24 23 23 23 23 22 22 22 22 22 21 21 21 22 22 22 21 21 21 21 21 20
25 25 25 25 24 24 24 25 25 26 26 27 27 26 25 25 24 24 24 24 25 24 23 23 23 22 22 22 22 22 22 22 22 22 22 22 22 22 21 21 21 21 21 20
23 24 25 25 24 24 25 25 25 25 25 26 26 26 25 24 24 24 24 24 24 24 24 24 23 22 22 21 22 22 23 23 23 23 23 23 23 22 21 21 21 21 20 19
25 26 25 25 25 24 24 24 24 23 24 25 25 25 24 24 24 24 24 24 23 23 23 23 23 22 22 22 22 22 23 23 23 23 23 22 21 21 20 20 20 20 19 19
25 24 25 26 25 24 24 23 23 24 25 25 25 25 25 24 24 24 24 23 23 23 23 23 23 22 22 22 23 23 23 23 23 22 22 21 20 20 20 20 20 18 17 18
24 24 25 25 24 25 24 23 22 22 23 24 25 24 24 24 24 24 24 23 23 23 22 23 22 22 22 22 23 23 23 22 22 21 21 20 20 20 19 19 19 18 18 18
24 25 27 26 24 23 22 23 23 24 24 24 23 23 23 23 23 24 24 24 23 23 23 22 22 22 22 21 22 22 22 22 22 22 21 21 21 20 20 19 19 18 19 19
24 25 25 25 24 24 23 23 23 22 21 22 22 23 23 23 23 23 23 23 23 22 21 21 21 21 21 22 22 22 21 21 21 22 21 21 20 20 19 19 19 19 19 19
24 24 25 26 25 24 24 24 23 22 22 22 22 22 23 23 22 22 22 21 21 20 20 20 20 21 21 21 21 21 21 21 21 21 21 21 20 19 19 19 19 19 19 19
23 24 23 24 24 24 24 23 23 22 22 22 22 21 21 21 21 21 22 21 20 20 20 20 21 21 21 21 20 20 20 20 19 20 20 20 20 20 19 19 19 18 18 19
22 22 22 23 23 23 23 22 22 22 22 22 22 21 21 22 21 21 21 21 20 20 20 21 21 21 20 20 19 19 19 18 18 19 20 19 18 19 19 18 18 18 18 18
22 22 22 22 22 22 22 22 22 22 21 21 21 21 21 20 20 21 21 20 20 20 20 20 20 20 19 19 19 19 18 18 18 17 17 17 16 16 16 16 17 17 17 18
21 21 21 22 22 22 22 22 22 21 21 21 21 21 21 20 20 20 21 21 20 20 19 19 19 19 19 19 18 18 17 17 16 16 16 16 16 16 16 16 16 16 16 16
21 21 21 21 21 21 22 22 21 21 21 22 22 21 21 21 21 21 20 20 20 19 18 18 18 19 19 19 18 18 17 16 15 16 16 16 16 16 16 16 16 16 16 15
21 20 20 20 20 20 20 20 20 21 21 21 21 20 20 20 21 21 20 19 19 19 19 19 18 19 18 17 17 18 16 15 15 15 16 16 16 15 15 15 15 15 15 15
19 18 19 20 20 19 19 20 21 21 21 21 21 20 20 20 19 19 19 19 19 19 19 19 18 17 17 17 16 15 15 14 15 15 15 15 15 15 15 15 15 15 15 16
19 19 19 19 19 18 18 19 19 20 21 21 21 21 20 20 20 20 19 19 19 19 19 19 18 17 17 17 16 15 14 15 15 15 15 15 15 15 15 15 15 15 15 16
18 18 18 18 19 18 18 19 19 19 20 21 21 21 20 20 20 20 20 19 19 19 19 19 19 18 17 16 16 15 16 16 16 16 16 15 15 15 16 16 16 16 15 15
18 18 18 18 18 19 19 20 20 20 20 20 20 20 20 20 20 20 19 19 19 19 18 18 18 18 18 18 17 16 17 16 16 15 16 16 16 16 16 16 17 16 16 16
17 18 18 18 19 19 20 20 21 21 21 20 19 19 19 20 20 20 19 19 19 19 18 18 17 17 17 18 18 18 17 17 17 17 17 17 17 17 17 17 17 17 17 17
16 17 18 19 20 20 20 19 20 21 21 20 20 20 20 20 20 20 19 19 19 19 19 18 17 16 17 17 17 18 18 18 18 17 17 17 17 18 18 17 17 17 17 17
Wind_Direction
262 259 260 263 265 265 268 269 269 270 268 270 272 274 281 282 283 282 283 285 286 288 289 286 285 284 284 283 282 282 279 278 279 279 280 282 284 285 285 284 288 289 289 289
260 258 261 262 262 263 265 268 269 269 268 268 267 273 277 278 280 280 281 284 286 288 286 284 283 282 281 280 280 281 281 278 279 279 279 282 285 288 286 285 288 289 289 290
261 261 262 262 264 267 268 270 269 270 268 269 271 275 276 277 280 281 281 283 286 286 285 284 282 280 279 279 278 279 281 280 276 277 279 281 285 288 287 287 288 289 289 290
263 262 263 265 264 266 266 267 266 267 269 271 272 273 276 278 279 281 282 283 284 284 281 282 282 281 280 279 277 278 280 281 277 276 278 282 285 286 286 287 288 288 289 289
262 262 263 264 266 267 265 267 267 269 271 272 273 273 275 279 281 282 282 282 282 282 281 281 281 281 279 278 277 277 279 280 279 276 276 280 283 285 287 286 287 287 287 288
261 259 261 263 266 265 263 266 269 269 270 272 273 273 274 277 279 281 281 282 283 281 281 281 281 280 278 277 277 277 278 278 277 276 276 279 283 285 286 287 287 285 286 288
260 261 261 263 266 266 263 266 269 271 273 273 274 275 275 277 278 279 279 280 280 279 278 279 280 280 278 277 277 277 278 277 276 276 276 279 283 285 286 286 285 285 285 286
261 260 260 261 263 264 267 269 270 271 273 273 275 276 276 277 279 279 279 279 279 278 277 278 279 280 279 277 276 276 276 276 275 275 276 278 281 283 285 284 283 283 284 284
261 260 260 260 263 265 266 268 269 271 273 275 276 276 276 275 277 278 279 280 279 279 277 276 277 278 278 277 276 275 275 275 274 275 276 278 279 282 282 283 283 282 284 284
259 258 261 262 265 265 265 267 269 271 273 274 275 274 274 273 277 278 279 278 278 278 277 275 275 277 278 277 276 276 275 275 274 275 275 275 277 280 282 282 282 283 283 283
258 261 263 267 266 265 266 269 271 272 272 273 275 275 275 274 277 279 279 278 277 276 278 278 277 277 277 276 276 278 277 274 273 272 273 274 276 277 278 279 281 284 282 281
261 263 263 266 266 266 269 272 269 269 270 272 275 275 275 276 277 279 278 277 276 277 278 279 279 277 277 276 278 279 278 275 272 272 273 275 277 276 279 280 280 280 282 284
259 262 266 268 269 269 271 272 270 270 270 272 274 276 276 277 277 278 278 277 277 278 279 279 278 277 279 279 281 281 280 279 275 274 275 276 278 277 278 278 278 276 279 281
258 260 264 267 269 270 271 272 272 272 271 273 275 276 276 277 277 278 278 278 278 279 280 279 279 277 277 279 282 283 281 280 276 275 274 274 274 275 274 273 274 274 276 278
259 260 262 265 268 268 270 271 271 272 273 274 275 275 276 277 277 278 278 277 276 278 279 280 279 278 278 279 282 283 281 279 276 275 274 273 273 273 273 272 272 273 275 276
262 262 262 263 268 270 270 270 271 272 273 274 273 273 275 277 278 280 280 277 275 276 278 280 279 279 280 281 281 281 281 279 275 274 274 273 273 273 273 272 272 272 276 278
264 265 266 267 269 269 268 269 270 270 271 273 273 273 274 276 277 279 279 276 276 276 278 279 278 277 278 278 280 282 281 279 276 275 274 272 273 273 272 272 270 271 274 278
268 268 267 268 269 268 268 268 269 270 271 272 273 273 275 277 277 279 280 278 277 276 277 277 275 273 274 275 277 279 279 278 275 274 277 278 276 274 273 271 271 272 273 275
271 272 270 268 269 268 267 268 270 269 269 271 273 274 276 276 277 278 279 280 280 280 279 276 273 272 273 274 278 278 280 279 273 269 273 276 277 277 273 269 272 277 277 275
273 274 272 269 269 268 268 269 269 270 269 270 272 272 272 274 276 277 279 280 281 280 278 277 275 273 272 273 274 276 277 276 272 269 270 273 273 275 273 271 274 279 279 278
273 272 271 270 270 269 268 268 267 268 269 269 272 274 275 276 277 277 278 278 277 276 276 277 276 274 271 271 272 274 276 274 273 274 272 270 270 274 275 273 275 278 278 277
272 270 270 270 269 268 268 269 268 268 269 268 269 272 275 276 276 275 275 276 275 274 273 275 277 274 269 269 271 273 274 274 275 277 276 272 272 276 276 275 277 278 279 279
272 270 269 270 270 270 268 267 267 270 271 270 272 274 273 272 272 272 272 272 273 273 273 272 272 271 269 266 266 268 270 272 273 278 279 276 274 273 274 276 277 278 279 280
274 271 268 268 268 268 267 266 267 270 272 272 273 275 274 271 271 272 273 273 272 272 271 269 268 268 265 266 265 266 269 271 272 275 277 274 271 270 272 273 274 277 280 281
274 271 269 268 267 266 266 266 267 270 275 275 274 275 275 274 274 272 270 271 272 271 271 271 268 266 265 264 265 267 267 268 272 276 275 270 269 270 270 268 270 274 276 279
277 272 270 271 271 271 272 270 269 272 277 277 275 275 274 274 274 273 272 271 270 271 271 269 269 269 267 265 266 267 268 267 269 270 270 270 269 270 270 266 267 272 274 277
282 279 275 275 275 274 275 273 273 274 275 275 274 275 275 273 272 271 269 268 269 271 272 269 268 269 269 266 263 264 266 268 269 268 268 268 267 269 269 268 269 272 274 275
Height
5790 5791 5792 5792 5793 5793 5793 5792 5792 5791 5790 5789 5786 5785 5785 5784 5783 5783 5782 5781 5781 5781 5780 5780 5779 5779 5778 5777 5776 5776 5775 5776 5776 5776 5775 5775 5774 5773 5772 5771 5770 5769 5768 5767
5785 5786 5786 5786 5787 5787 5787 5786 5786 5785 5784 5782 5781 5780 5780 5778 5778 5778 5778 5777 5777 5776 5775 5775 5775 5774 5773 5773 5772 5771 5770 5770 5770 5770 5770 5770 5769 5768 5767 5766 5765 5764 5763 5761
5779 5780 5780 5781 5781 5781 5781 5781 5781 5779 5779 5776 5776 5776 5775 5774 5773 5773 5773 5773 5772 5772 5771 5770 5770 5769 5768 5768 5767 5766 5765 5765 5765 5765 5765 5765 5764 5763 5762 5761 5760 5759 5757 5756
5772 5774 5773 5777 5775 5775 5774 5774 5774 5772 5771 5771 5770 5770 5769 5769 5768 5768 5768 5767 5767 5766 5766 5765 5764 5764 5763 5762 5762 5761 5760 5760 5759 5760 5760 5760 5759 5758 5757 5756 5755 5754 5752 5751
5767 5767 5767 5769 5768 5767 5767 5767 5767 5766 5766 5766 5765 5765 5764 5763 5763 5763 5762 5762 5761 5761 5760 5760 5759 5758 5757 5756 5756 5756 5755 5755 5754 5754 5754 5754 5753 5753 5752 5751 5749 5748 5747 5746
5759 5760 5760 5762 5761 5761 5762 5761 5760 5760 5760 5760 5759 5759 5759 5758 5757 5756 5756 5756 5755 5754 5754 5753 5752 5752 5751 5751 5750 5750 5749 5749 5749 5749 5749 5748 5748 5747 5746 5745 5744 5743 5742 5741
5752 5752 5753 5754 5754 5754 5756 5755 5754 5753 5753 5753 5752 5753 5752 5751 5750 5750 5749 5749 5748 5747 5747 5747 5746 5745 5745 5745 5744 5744 5743 5743 5743 5743 5743 5743 5742 5741 5740 5739 5738 5737 5736 5735
5745 5746 5748 5746 5746 5747 5747 5747 5747 5747 5747 5746 5746 5745 5745 5745 5744 5743 5743 5742 5741 5741 5741 5740 5739 5739 5738 5738 5738 5737 5737 5737 5737 5736 5736 5737 5736 5735 5734 5733 5732 5731 5730 5729
5738 5740 5740 5739 5738 5739 5740 5740 5740 5740 5740 5740 5739 5739 5738 5738 5737 5737 5737 5736 5735 5735 5734 5734 5733 5732 5732 5732 5731 5731 5731 5731 5730 5730 5730 5730 5729 5729 5728 5727 5726 5725 5724 5723
5731 5732 5732 5731 5732 5732 5733 5733 5733 5733 5733 5732 5732 5732 5731 5731 5731 5731 5730 5730 5729 5729 5727 5727 5727 5726 5726 5725 5725 5724 5724 5724 5724 5723 5723 5723 5722 5722 5721 5720 5720 5719 5718 5717
5724 5724 5725 5725 5725 5726 5726 5727 5726 5727 5726 5726 5725 5725 5725 5725 5724 5724 5724 5724 5723 5722 5721 5721 5720 5720 5719 5718 5718 5717 5717 5717 5716 5716 5716 5716 5715 5715 5714 5714 5713 5712 5712 5711
5717 5717 5718 5718 5719 5719 5719 5720 5720 5720 5720 5719 5719 5719 5719 5718 5718 5717 5717 5717 5716 5716 5715 5714 5714 5713 5713 5712 5712 5711 5710 5710 5709 5709 5709 5709 5709 5709 5708 5708 5707 5706 5706 5705
5712 5712 5711 5711 5712 5711 5712 5712 5713 5713 5713 5713 5713 5712 5712 5712 5711 5710 5710 5710 5709 5709 5708 5708 5707 5706 5706 5706 5705 5704 5704 5703 5703 5702 5702 5702 5702 5702 5702 5702 5701 5700 5700 5699
5704 5705 5705 5705 5705 5706 5706 5706 5706 5705 5706 5706 5706 5706 5705 5705 5704 5703 5703 5703 5702 5702 5702 5701 5701 5700 5699 5699 5699 5698 5697 5696 5696 5696 5696 5696 5695 5695 5695 5695 5695 5694 5694 5694
5698 5698 5698 5698 5698 5699 5699 5700 5700 5700 5700 5699 5699 5699 5698 5698 5697 5697 5696 5696 5696 5696 5695 5695 5694 5694 5693 5693 5692 5691 5690 5690 5689 5689 5689 5689 5689 5688 5688 5688 5688 5688 5688 5688
5692 5692 5692 5692 5692 5693 5693 5693 5693 5693 5693 5693 5692 5692 5692 5691 5691 5691 5690 5690 5690 5689 5689 5689 5688 5687 5687 5686 5686 5685 5684 5683 5683 5682 5682 5682 5682 5682 5682 5681 5681 5681 5681 5681
5686 5686 5685 5686 5686 5686 5686 5686 5686 5686 5686 5686 5686 5686 5685 5685 5685 5685 5684 5684 5683 5683 5683 5682 5682 5681 5681 5680 5680 5679 5678 5678 5677 5677 5676 5676 5676 5675 5675 5675 5674 5674 5675 5675
5679 5679 5678 5679 5679 5679 5679 5680 5680 5680 5680 5680 5680 5679 5679 5679 5679 5678 5678 5677 5677 5677 5676 5676 5675 5675 5675 5674 5674 5673 5672 5671 5671 5671 5671 5670 5670 5669 5669 5669 5669 5669 5669 5669
5672 5672 5672 5672 5672 5672 5673 5673 5673 5673 5673 5673 5673 5673 5672 5672 5672 5672 5672 5671 5671 5671 5670 5669 5669 5669 5669 5669 5668 5668 5667 5666 5665 5666 5665 5665 5665 5664 5664 5664 5664 5664 5663 5663
5665 5665 5665 5665 5665 5665 5665 5666 5666 5667 5666 5666 5666 5666 5666 5666 5666 5666 5665 5665 5665 5664 5664 5664 5663 5663 5663 5663 5662 5662 5661 5661 5660 5660 5660 5660 5660 5659 5659 5659 5659 5658 5658 5658
5659 5659 5659 5659 5659 5659 5659 5659 5659 5660 5660 5660 5659 5659 5659 5659 5659 5659 5659 5659 5659 5658 5658 5658 5658 5658 5657 5657 5656 5656 5655 5655 5655 5655 5655 5654 5654 5654 5654 5654 5654 5653 5653 5653
5653 5653 5653 5653 5653 5653 5653 5653 5653 5653 5653 5653 5653 5653 5653 5653 5653 5653 5653 5653 5653 5652 5652 5652 5652 5652 5652 5651 5651 5651 5651 5650 5650 5650 5650 5650 5650 5650 5649 5649 5649 5648 5648 5648
5647 5647 5647 5646 5646 5646 5647 5646 5646 5647 5647 5647 5647 5647 5647 5647 5647 5646 5646 5647 5646 5646 5646 5646 5647 5647 5647 5646 5646 5646 5646 5646 5646 5646 5645 5645 5645 5645 5645 5645 5644 5644 5644 5643
5641 5641 5640 5640 5640 5640 5641 5640 5640 5640 5640 5640 5640 5640 5640 5640 5640 5640 5640 5640 5640 5640 5640 5640 5640 5640 5641 5641 5640 5641 5641 5641 5641 5641 5641 5640 5640 5640 5640 5640 5640 5640 5639 5639
5635 5635 5634 5634 5634 5634 5634 5634 5634 5634 5633 5633 5634 5634 5634 5634 5634 5634 5634 5634 5634 5634 5634 5634 5634 5634 5634 5635 5635 5635 5636 5636 5636 5636 5636 5635 5636 5636 5636 5636 5636 5635 5635 5635
5629 5629 5629 5628 5628 5628 5628 5628 5628 5628 5627 5627 5627 5627 5627 5627 5627 5627 5628 5628 5628 5628 5628 5628 5628 5628 5629 5629 5630 5630 5630 5631 5631 5631 5631 5631 5631 5631 5631 5630 5630 5630 5630 5630
5624 5624 5623 5623 5622 5622 5621 5621 5621 5620 5620 5619 5620 5620 5619 5620 5620 5621 5621 5621 5622 5622 5622 5622 5622 5622 5623 5623 5623 5624 5624 5625 5625 5625 5626 5626 5626 5625 5626 5626 5625 5625 5625 5625